TimePST,TemperatureF,Dew PointF,Humidity,Sea Level PressureIn,VisibilityMPH,Wind Direction,Wind SpeedMPH,Gust SpeedMPH,PrecipitationIn,Events,Conditions,WindDirDegrees,DateUTC
12:00 AM,37.2,35.1,92,30.14,-9999.0,ENE,2.3,-,0.11,,Unknown,70,2012-11-12 08:00:00
1:00 AM,37.8,35.4,91,30.13,-9999.0,ENE,3.5,-,0.01,,Unknown,70,2012-11-12 09:00:00
2:00 AM,37.4,35.4,93,30.13,-9999.0,ENE,6.9,-,0.03,,Unknown,70,2012-11-12 10:00:00
3:00 AM,38.5,36.0,91,30.12,-9999.0,NE,8.1,-,0.06,,Unknown,40,2012-11-12 11:00:00
4:00 AM,38,35,87,30.12,,NNE,4.6,,,,,30,2012-11-12 12:00:00
4:00 AM,37.9,35.4,91,30.12,-9999.0,NNE,4.6,-,0.04,,Unknown,30,2012-11-12 12:00:00
5:00 AM,37.2,35.1,92,30.12,-9999.0,ENE,5.8,-,0.05,,Unknown,60,2012-11-12 13:00:00
6:00 AM,38.5,36.1,91,30.12,-9999.0,NE,4.6,-,0.01,,Unknown,40,2012-11-12 14:00:00
7:00 AM,37.6,35.2,91,30.14,-9999.0,NNE,9.2,-,N/A,,Unknown,30,2012-11-12 15:00:00
8:00 AM,37.8,35.8,93,30.15,-9999.0,NE,3.5,-,N/A,,Unknown,50,2012-11-12 16:00:00
9:00 AM,38.5,36.1,91,30.15,-9999.0,NW,2.3,-,N/A,,Unknown,310,2012-11-12 17:00:00
10:00 AM,39,36,87,30.16,,NW,4.6,,,,,320,2012-11-12 18:00:00
10:00 AM,38.8,36.5,91,30.16,-9999.0,NW,4.6,-,0.02,,Unknown,320,2012-11-12 18:00:00
11:00 AM,41.0,38.7,91,30.17,-9999.0,NE,3.5,-,N/A,,Unknown,50,2012-11-12 19:00:00
12:00 PM,42.4,37.9,84,30.16,-9999.0,WNW,1.2,-,N/A,,Unknown,300,2012-11-12 20:00:00
1:00 PM,43.0,40.5,91,30.17,-9999.0,South,2.3,-,N/A,,Unknown,190,2012-11-12 21:00:00
2:00 PM,43.5,40.3,88,30.17,-9999.0,South,1.2,-,N/A,,Unknown,170,2012-11-12 22:00:00
3:00 PM,42.8,39.7,89,30.17,-9999.0,SE,2.3,-,N/A,,Unknown,140,2012-11-12 23:00:00
4:00 PM,42,39,87,30.16,,SSW,1.2,,,,,210,2012-11-13 00:00:00
4:00 PM,42.4,39.4,89,30.16,-9999.0,SSW,1.2,-,N/A,,Unknown,210,2012-11-13 00:00:00
5:00 PM,40.8,38.8,93,30.17,-9999.0,Calm,Calm,-,N/A,,Unknown,0,2012-11-13 01:00:00
6:00 PM,40.3,39.0,95,30.18,-9999.0,West,1.2,-,0.03,,Unknown,260,2012-11-13 02:00:00
7:00 PM,40.8,39.9,97,30.20,-9999.0,South,1.2,-,N/A,,Unknown,170,2012-11-13 03:00:00
8:00 PM,40.1,39.4,97,30.19,-9999.0,NNW,2.3,-,0.06,,Unknown,340,2012-11-13 04:00:00
9:00 PM,40.1,39.6,98,30.19,-9999.0,NNW,1.2,-,N/A,,Unknown,330,2012-11-13 05:00:00
10:00 PM,40,40,98,30.19,,ESE,1.2,,,,,110,2012-11-13 06:00:00
10:00 PM,40.1,39.6,98,30.19,-9999.0,ESE,1.2,-,N/A,,Unknown,110,2012-11-13 06:00:00
11:00 PM,40.6,40.1,98,30.19,-9999.0,NNE,1.2,-,N/A,,Unknown,30,2012-11-13 07:00:00